[[[{"header":{"parameterUnit":"kt","parameterCategory":2,"dx":1,"dy":1,"la1":30.253999710083008,"la2":30.299108505249023,"lo1":-89.0895004272461,"lo2":-89.04439544677734,"nx":28,"ny":28,"refTime":"2022-10-19T09:00:00:Z","depth":0,"parameterNumber":1,"parameterNumberName":"U-component_of_WINDS"},"data":[-2.6298,-2.6349,-2.6325,-2.6372,-2.6359,-2.6387,-2.639,-2.6391,-2.6385,-2.6417,-2.6431,-2.6412,-2.6397,-2.6409,-2.6423,-2.6414,-2.6423,-2.6459,-2.6443,-2.6304,-2.6284,-2.6264,-2.6251,-2.646,-2.6461,-2.6592,-2.6593,-2.6594,-2.62,-2.6187,-2.6204,-2.6205,-2.622,-2.6172,-2.6168,-2.6185,-2.6211,-2.6205,-2.6217,-2.6243,-2.626,-2.6232,-2.6245,-2.6269,-2.6248,-2.6275,-2.6274,-2.6273,-2.6123,-2.6109,-2.6292,-2.6292,-2.6292,-2.6292,-2.6292,-2.6292,-2.6015,-2.6046,-2.6032,-2.6051,-2.6044,-2.6045,-2.6071,-2.6046,-2.6063,-2.6073,-2.6041,-2.6071,-2.606,-2.6063,-2.6058,-2.6081,-2.6047,-2.607,-2.6076,-2.6083,-2.6095,-2.5914,-2.6082,-2.6081,-2.6081,-2.608,-2.608,0,-2.5872,-2.585,-2.5865,-2.5873,-2.5885,-2.5888,-2.5888,-2.5903,-2.5847,-2.5864,-2.5885,-2.5894,-2.5911,-2.593,-2.5936,-2.5926,-2.5879,-2.587,-2.5886,-2.5904,-2.592,-2.5915,-2.5674,-2.5866,-2.5864,-2.5863,-2.5862,-2.5861,-2.5686,-2.5724,-2.5698,-2.5711,-2.5705,-2.5728,-2.5736,-2.5684,-2.5696,-2.5687,-2.5717,-2.5734,-2.5745,-2.5785,-2.5756,-2.5769,-2.5747,-2.5824,-2.5749,-2.5764,-2.5752,-2.5751,-2.5756,-2.584,-2.5843,-2.5845,-2.5847,0,-2.5584,-2.5544,-2.5595,-2.5564,-2.5558,-2.5601,-2.5575,-2.5604,-2.5576,-2.5612,-2.5618,-2.5576,-2.5598,-2.5557,-2.5574,-2.5552,-2.5625,-2.5601,-2.5629,-2.5623,-2.5689,-2.5685,-2.5906,-2.5933,-2.5712,-2.5715,-2.5716,0,-2.5411,-2.5463,-2.54,-2.5432,-2.5488,-2.5433,-2.5491,-2.5473,-2.5461,-2.5489,-2.5427,-2.5455,-2.5397,-2.5419,-2.5386,-2.5438,-2.544,-2.5427,-2.5419,-2.5435,-2.5437,-2.5443,-2.5434,-2.5394,-2.5393,-2.5392,-2.5391,0,-2.5258,-2.5284,-2.5335,-2.5334,-2.5307,-2.5332,-2.5322,-2.5308,-2.5318,-2.5322,-2.5328,-2.5337,-2.5343,-2.5352,-2.531,-2.5262,-2.5371,-2.5296,-2.5359,-2.536,-2.5388,-2.5387,-2.5591,-2.539,-2.5389,-2.5389,-2.5389,0,-2.5112,-2.5117,-2.5197,-2.5172,-2.5182,-2.5215,-2.522,-2.5239,-2.5229,-2.5211,-2.5214,-2.5168,-2.5208,-2.5136,-2.5191,-2.5139,-2.5149,-2.514,-2.5143,-2.5147,-2.5069,-2.5193,-2.5388,-2.5409,-2.5147,-2.5145,-2.5143,0,-2.4949,-2.5018,-2.4972,-2.5048,-2.5074,-2.5003,-2.5039,-2.5032,-2.501,-2.5029,-2.5004,-2.5027,-2.4964,-2.4966,-2.4998,-2.4974,-2.5041,-2.4963,-2.4995,-2.4997,-2.5003,-2.5182,-2.5223,-2.5349,-2.5117,-2.512,-2.5122,0,-2.4818,-2.4783,-2.48,-2.4798,-2.4779,-2.48,-2.4841,-2.4851,-2.4866,-2.4864,-2.4899,-2.4928,-2.4882,-2.4885,-2.4849,-2.4885,-2.4994,-2.4832,-2.4831,-2.4865,-2.5099,-2.5138,-2.516,-2.4962,-2.4965,-2.4967,-2.5101,0,-2.4612,-2.4641,-2.4683,-2.4679,-2.4688,-2.4733,-2.4688,-2.4704,-2.4668,-2.4643,-2.4692,-2.4674,-2.4685,-2.4697,-2.4662,-2.4757,-2.4735,-2.4686,-2.4616,-2.4732,-2.4775,-2.4793,-2.4555,-2.4553,-2.4551,-2.4549,0,0,-2.4468,-2.4507,-2.4455,-2.4492,-2.4497,-2.4422,-2.4475,-2.447,-2.4465,-2.447,-2.443,-2.447,-2.4458,-2.4522,-2.4554,-2.4558,-2.4572,-2.4532,-2.4676,-2.4691,-2.4704,-2.4751,-2.4769,-2.4546,-2.4545,-2.4544,-2.4544,0,-2.4384,-2.4371,-2.4423,-2.4416,-2.4404,-2.4375,-2.4387,-2.4363,-2.4349,-2.4395,-2.4334,-2.4358,-2.4391,-2.4387,-2.439,-2.4523,-2.4477,-2.4529,-2.4617,-2.4658,-2.4675,-2.469,-2.4739,-2.4758,-2.4539,-2.4539,-2.4539,0,-2.4249,-2.423,-2.4249,-2.4255,-2.4247,-2.4275,-2.4189,-2.4222,-2.4242,-2.416,-2.4207,-2.4192,-2.4183,-2.4248,-2.4275,-2.424,-2.4393,-2.4336,-2.4347,-2.435,-2.4388,-2.4408,-2.4426,-2.4187,-2.4186,-2.4185,0,0,-2.4182,-2.4208,-2.4171,-2.4234,-2.4233,-2.419,-2.42,-2.4165,-2.4157,-2.4155,-2.4134,-2.413,-2.4148,-2.4162,-2.4177,-2.4254,-2.4249,-2.4294,-2.4311,-2.4324,-2.4335,-2.4377,-2.4397,-2.4181,-2.4181,-2.4181,0,0,-2.4151,-2.4111,-2.4075,-2.4142,-2.4137,-2.4105,-2.4146,-2.4102,-2.4111,-2.4101,-2.4044,-2.404,-2.41,-2.4087,-2.404,-2.4151,-2.4081,-2.4092,-2.4157,-2.4178,-2.4194,-2.4197,-2.3951,0,0,0,0,0,-2.4042,-2.4115,-2.4084,-2.4088,-2.4096,-2.4123,-2.4123,-2.4078,-2.403,-2.4063,-2.4039,-2.3987,-2.405,-2.4007,-2.4012,-2.4067,-2.413,-2.4139,-2.4148,-2.425,-2.4272,-2.429,0,0,0,0,0,0,-2.4043,-2.4049,-2.4082,-2.4054,-2.4055,-2.412,-2.4028,-2.4018,-2.4025,-2.4015,-2.3994,-2.3987,-2.3949,-2.4001,-2.4007,-2.4059,-2.3949,-2.4134,-2.4141,-2.4148,-2.4257,-2.4275,-2.4291,0,0,0,0,0,-2.4044,-2.4048,-2.4072,-2.4053,-2.4054,-2.4011,-2.4025,-2.4016,-2.402,-2.3983,-2.3974,-2.3985,-2.3951,-2.3953,-2.4004,-2.4058,-2.3944,-2.3947,-2.4139,-2.4145,-2.415,-2.4266,0,0,0,0,0,0,-2.4044,-2.404,-2.4071,-2.407,-2.4021,-2.4006,-2.4002,-2.4014,-2.3987,-2.398,-2.3972,-2.3964,-2.3954,-2.3955,-2.3957,-2.406,-2.3941,-2.3943,-2.3945,-2.4143,-2.4148,-2.4152,0,0,0,0,0,0,-2.4037,-2.4039,-2.407,-2.4033,-2.4027,-2.4002,-2.3999,-2.4035,-2.3988,-2.3977,-2.397,-2.3968,-2.3952,-2.3957,-2.3958,-2.4016,-2.3938,-2.394,-2.3942,-2.3943,-2.4147,-2.4151,0,0,0,0,0,0,-2.4037,-2.4039,-2.4033,-2.4029,-2.4023,-2.4004,-2.4033,-2.4044,-2.3956,-2.398,-2.3947,-2.3943,-2.3955,-2.3955,-2.3959,-2.4017,-2.4017,-2.3938,-2.394,-2.3941,-2.3941,0,0,0,0,0,0,0,-2.4037,-2.4036,-2.4079,-2.4025,-2.402,-2.4057,-2.4057,-2.4056,-2.3955,-2.3951,-2.3948,-2.3944,-2.3925,-2.3928,-2.393,-2.4018,0,0,-2.3938,-2.3939,0,0,0,0,0,0,0,0,-2.4034,-2.4036,-2.4079,-2.4079,-2.4079,-2.4057,-2.4057,-2.4056,-2.3954,-2.3951,-2.3948,-2.3946,-2.3926,-2.3928,-2.393,0,0,0,0,0,0,0,0,0,0,0,0,0,0,0,-2.4079,-2.4079,0,-2.4057,-2.4057,-2.4057,-2.3954,-2.3951,-2.3949,-2.3947,-2.3926,-2.3928,-2.393,0,0,0,0,0,0,0,0,0,0,0,0,0,0,0,0,0,0,0,0,0,0,0,0,0,0,0,0,0,0,0,0,0,0,0,0,0,0,0,0,0,0,0,0,0,0,0,0,0,0,0,0,0,0,0,0,0,0,0,0,0,0,0,0,0,0,0,0,0]}],[{"header":{"parameterUnit":"kt","parameterCategory":2,"dx":1,"dy":1,"la1":30.253999710083008,"la2":30.299108505249023,"lo1":-89.0895004272461,"lo2":-89.04439544677734,"nx":28,"ny":28,"refTime":"2022-10-19T09:00:00:Z","depth":0,"parameterNumber":2,"parameterNumberName":"V-component_of_WINDS"},"data":[-7.1037,-7.112,-7.113,-7.1228,-7.1252,-7.132,-7.1347,-7.1382,-7.1412,-7.1492,-7.1539,-7.1554,-7.1585,-7.1641,-7.1691,-7.1696,-7.1718,-7.1742,-7.1744,-7.163,-7.1615,-7.16,-7.1583,-7.1746,-7.1746,-7.1862,-7.1864,-7.1864,-7.0956,-7.0982,-7.1036,-7.1095,-7.1141,-7.1124,-7.1167,-7.1207,-7.1267,-7.1303,-7.135,-7.142,-7.1475,-7.1497,-7.1551,-7.1588,-7.1583,-7.1603,-7.1601,-7.1607,-7.1485,-7.1466,-7.1607,-7.1607,-7.1607,-7.1607,-7.1607,-7.1607,-7.0811,-7.086,-7.0901,-7.096,-7.0991,-7.1029,-7.1076,-7.1095,-7.1146,-7.1205,-7.1202,-7.1269,-7.1305,-7.1372,-7.1395,-7.1447,-7.1426,-7.1449,-7.1456,-7.1463,-7.147,-7.1307,-7.1455,-7.1455,-7.1455,-7.1454,-7.1454,0,-7.0709,-7.0713,-7.0765,-7.082,-7.0863,-7.0905,-7.0945,-7.0974,-7.0981,-7.1023,-7.1083,-7.1119,-7.1188,-7.1245,-7.1295,-7.1315,-7.13,-7.1297,-7.1314,-7.1319,-7.1318,-7.1322,-7.1126,-7.1293,-7.1292,-7.1291,-7.129,-7.1289,-7.0566,-7.0621,-7.0666,-7.0701,-7.0725,-7.0781,-7.0816,-7.0818,-7.0855,-7.0902,-7.0943,-7.1,-7.1046,-7.1138,-7.1155,-7.1206,-7.1199,-7.1263,-7.1207,-7.1209,-7.1204,-7.1202,-7.1209,-7.1275,-7.1277,-7.1278,-7.1279,0,-7.0486,-7.0499,-7.0585,-7.0624,-7.0635,-7.0691,-7.0723,-7.077,-7.0781,-7.0847,-7.0862,-7.0879,-7.0937,-7.0944,-7.1009,-7.1011,-7.1104,-7.1094,-7.1093,-7.1092,-7.1152,-7.1148,-7.134,-7.1366,-7.1194,-7.1196,-7.1197,0,-7.037,-7.0441,-7.0456,-7.0506,-7.0584,-7.0586,-7.0663,-7.068,-7.0711,-7.0763,-7.0746,-7.0795,-7.0795,-7.0844,-7.0847,-7.0923,-7.0934,-7.0941,-7.0941,-7.0945,-7.0944,-7.0965,-7.0958,-7.0936,-7.0935,-7.0934,-7.0933,0,-7.0246,-7.0334,-7.0414,-7.0437,-7.0483,-7.052,-7.0541,-7.0575,-7.0608,-7.0651,-7.0672,-7.0721,-7.0748,-7.0786,-7.0789,-7.0751,-7.0881,-7.0829,-7.0889,-7.0889,-7.0919,-7.0917,-7.1084,-7.0932,-7.0932,-7.0931,-7.0931,0,-7.0155,-7.0201,-7.0313,-7.0353,-7.0376,-7.0427,-7.0477,-7.0522,-7.0559,-7.0565,-7.0598,-7.0588,-7.0653,-7.0602,-7.0692,-7.0642,-7.067,-7.0681,-7.0685,-7.0694,-7.0637,-7.0734,-7.089,-7.0908,-7.0699,-7.0697,-7.0696,0,-7.001,-7.0127,-7.0129,-7.0235,-7.029,-7.0271,-7.0327,-7.036,-7.0372,-7.0419,-7.0431,-7.0484,-7.0447,-7.0464,-7.0507,-7.0522,-7.0587,-7.0513,-7.0582,-7.0584,-7.0577,-7.0719,-7.0742,-7.0854,-7.0671,-7.0673,-7.0675,0,-6.99,-6.9956,-6.9975,-7.0001,-7.0045,-7.009,-7.0154,-7.0208,-7.024,-7.0276,-7.0331,-7.0402,-7.0379,-7.0407,-7.0403,-7.0448,-7.0543,-7.0416,-7.0416,-7.0441,-7.0657,-7.068,-7.0699,-7.053,-7.0533,-7.0536,-7.0655,0,-6.9766,-6.9824,-6.9874,-6.993,-6.9965,-7.0031,-7.004,-7.0076,-7.007,-7.0081,-7.0159,-7.0185,-7.0237,-7.0258,-7.0251,-7.0351,-7.0336,-7.0309,-7.0261,-7.0353,-7.0393,-7.0409,-7.0202,-7.02,-7.0199,-7.0198,0,0,-6.9626,-6.971,-6.971,-6.9773,-6.9803,-6.9781,-6.9851,-6.9876,-6.9929,-6.995,-6.9923,-7.0029,-7.0051,-7.0145,-7.0174,-7.0193,-7.0213,-7.0179,-7.0309,-7.0321,-7.0333,-7.0375,-7.0392,-7.0196,-7.0195,-7.0195,-7.0195,0,-6.958,-6.9605,-6.9674,-6.9702,-6.9743,-6.9751,-6.9768,-6.9803,-6.9814,-6.9889,-6.9869,-6.9916,-6.9998,-7.0026,-7.0051,-7.0168,-7.015,-7.0182,-7.0245,-7.0297,-7.0311,-7.0323,-7.0367,-7.0383,-7.0192,-7.0192,-7.0192,0,-6.9475,-6.9503,-6.9536,-6.9603,-6.9629,-6.9684,-6.9637,-6.9696,-6.9737,-6.9707,-6.9783,-6.9798,-6.9833,-6.9919,-6.9958,-6.9934,-7.0093,-7.0043,-7.005,-7.0055,-7.0105,-7.0122,-7.0137,-6.9942,-6.9941,-6.994,0,0,-6.9434,-6.9488,-6.9517,-6.9594,-6.9612,-6.9625,-6.9654,-6.9652,-6.9686,-6.9699,-6.9719,-6.9751,-6.9799,-6.9831,-6.9877,-6.9969,-6.9977,-7.0012,-7.0023,-7.0033,-7.0043,-7.0096,-7.0112,-6.9937,-6.9937,-6.9937,0,0,-6.9413,-6.9452,-6.9441,-6.9531,-6.9565,-6.9598,-6.9644,-6.963,-6.9672,-6.9665,-6.9662,-6.967,-6.975,-6.9765,-6.972,-6.986,-6.9812,-6.9823,-6.9848,-6.9863,-6.9874,-6.987,-6.9674,0,0,0,0,0,-6.9372,-6.9447,-6.9437,-6.9453,-6.9536,-6.9604,-6.9614,-6.9614,-6.9581,-6.9618,-6.9632,-6.961,-6.974,-6.97,-6.9715,-6.9766,-6.9894,-6.9902,-6.9909,-6.9963,-6.9978,-6.9991,0,0,0,0,0,0,-6.9378,-6.9398,-6.9435,-6.9471,-6.9489,-6.9601,-6.9546,-6.9548,-6.9578,-6.9573,-6.9608,-6.9611,-6.9611,-6.9692,-6.9706,-6.9755,-6.9669,-6.9897,-6.9903,-6.9909,-6.9968,-6.9981,-6.9992,0,0,0,0,0,-6.9383,-6.9399,-6.9532,-6.947,-6.9486,-6.9504,-6.9543,-6.9544,-6.9567,-6.9589,-6.9591,-6.9565,-6.9612,-6.9624,-6.97,-6.9748,-6.966,-6.9665,-6.9901,-6.9906,-6.9911,-6.9974,0,0,0,0,0,0,-6.9387,-6.94,-6.9535,-6.954,-6.9441,-6.9498,-6.9507,-6.9541,-6.9581,-6.9584,-6.9544,-6.954,-6.9614,-6.9623,-6.9632,-6.9746,-6.9652,-6.9657,-6.966,-6.9905,-6.9909,-6.9913,0,0,0,0,0,0,-6.9392,-6.9405,-6.9538,-6.9502,-6.9503,-6.9492,-6.95,-6.9564,-6.9581,-6.9534,-6.9532,-6.9542,-6.96,-6.9623,-6.9629,-6.9729,-6.9646,-6.9651,-6.9654,-6.9656,-6.9908,-6.9911,0,0,0,0,0,0,-6.9397,-6.9408,-6.9501,-6.9501,-6.9502,-6.9556,-6.9548,-6.9632,-6.9553,-6.9532,-6.9546,-6.9542,-6.96,-6.9607,-6.9628,-6.9725,-6.9728,-6.9646,-6.9649,-6.9652,-6.9653,0,0,0,0,0,0,0,-6.9402,-6.9327,-6.9507,-6.9501,-6.9501,-6.9585,-6.9586,-6.9588,-6.9552,-6.9549,-6.9546,-6.9544,-6.9617,-6.9622,-6.9628,-6.9721,0,0,-6.9645,-6.9648,0,0,0,0,0,0,0,0,-6.9322,-6.9326,-6.9507,-6.9508,-6.9509,-6.9585,-6.9586,-6.9587,-6.9552,-6.9549,-6.9547,-6.9545,-6.9618,-6.9623,-6.9627,0,0,0,0,0,0,0,0,0,0,0,0,0,0,0,-6.9507,-6.9508,0,-6.9585,-6.9586,-6.9587,-6.9551,-6.9549,-6.9547,-6.9546,-6.962,-6.9623,-6.9627,0,0,0,0,0,0,0,0,0,0,0,0,0,0,0,0,0,0,0,0,0,0,0,0,0,0,0,0,0,0,0,0,0,0,0,0,0,0,0,0,0,0,0,0,0,0,0,0,0,0,0,0,0,0,0,0,0,0,0,0,0,0,0,0,0,0,0,0,0]}]]]